IGO501 VNKT-VECC

Flight info

Callsign IGO501
Flight time 0h 57m
Altitude 35000
Route IGRIS1C LALBA G335 SEETA R325 DUMKA DUMKA2A
Aircraft A320/M-SDE3FGHIRWY/LB1

Departure

Time 2026-04-21 05:29
Airport Tribhuvan International Airport (VNKT)

Arrival

Time 2026-04-21 06:26
Airport Netaji Subhash Chandra Bose International Airport (VECC)
Time Latitude Longitude Altitude Speed Heading
2026-04-21 05:06 27.69811 85.35779 4404 ft 0 kts 292°
2026-04-21 05:18 27.69811 85.35780 4404 ft 0 kts 292°
2026-04-21 05:18 27.69806 85.35793 4404 ft 3 kts 289°
2026-04-21 05:19 27.69800 85.35814 4404 ft 3 kts 282°
2026-04-21 05:19 27.69798 85.35837 4404 ft 3 kts 265°
2026-04-21 05:19 27.69802 85.35857 4404 ft 3 kts 224°
2026-04-21 05:19 27.69811 85.35864 4404 ft 1 kts 202°
2026-04-21 05:20 27.69813 85.35865 4404 ft 0 kts 202°
2026-04-21 05:22 27.69799 85.35859 4404 ft 4 kts 202°
2026-04-21 05:22 27.69767 85.35844 4404 ft 6 kts 202°
2026-04-21 05:23 27.69718 85.35822 4404 ft 9 kts 202°
2026-04-21 05:23 27.69651 85.35791 4404 ft 12 kts 202°
2026-04-21 05:23 27.69566 85.35753 4404 ft 15 kts 202°
2026-04-21 05:23 27.69462 85.35706 4404 ft 17 kts 201°
2026-04-21 05:24 27.69349 85.35655 4404 ft 18 kts 201°
2026-04-21 05:24 27.69238 85.35606 4404 ft 16 kts 201°
2026-04-21 05:24 27.69154 85.35569 4404 ft 13 kts 201°
2026-04-21 05:24 27.69071 85.35583 4404 ft 13 kts 142°
2026-04-21 05:25 27.68992 85.35611 4404 ft 12 kts 191°
2026-04-21 05:25 27.68911 85.35574 4404 ft 13 kts 204°
2026-04-21 05:25 27.68829 85.35534 4404 ft 13 kts 203°
2026-04-21 05:25 27.68745 85.35495 4404 ft 13 kts 202°
2026-04-21 05:26 27.68659 85.35456 4404 ft 14 kts 202°
2026-04-21 05:26 27.68569 85.35416 4404 ft 14 kts 201°
2026-04-21 05:26 27.68482 85.35372 4404 ft 13 kts 230°
2026-04-21 05:26 27.68426 85.35327 4404 ft 7 kts 165°
2026-04-21 05:27 27.68422 85.35351 4404 ft 3 kts 41°
2026-04-21 05:27 27.68432 85.35357 4404 ft 0 kts 23°
2026-04-21 05:28 27.68508 85.35393 4404 ft 45 kts 22°
2026-04-21 05:28 27.69056 85.35643 4405 ft 123 kts 22°
2026-04-21 05:28 27.70062 85.36102 4406 ft 186 kts 22°
2026-04-21 05:28 27.71322 85.36685 4938 ft 194 kts 25°
2026-04-21 05:29 27.72343 85.37619 5823 ft 189 kts 60°
2026-04-21 05:29 27.72666 85.39041 6400 ft 194 kts 97°
2026-04-21 05:29 27.72128 85.40447 6630 ft 206 kts 135°
2026-04-21 05:29 27.70842 85.41228 6850 ft 218 kts 174°
2026-04-21 05:30 27.69352 85.40890 7066 ft 231 kts 214°
2026-04-21 05:30 27.68321 85.39461 7323 ft 244 kts 253°
2026-04-21 05:30 27.68290 85.37549 7736 ft 252 kts 290°
2026-04-21 05:30 27.69235 85.35913 8352 ft 252 kts 316°
2026-04-21 05:31 27.70686 85.34806 8999 ft 253 kts 336°
2026-04-21 05:31 27.72416 85.34381 9538 ft 261 kts
2026-04-21 05:31 27.74174 85.34907 10106 ft 267 kts 30°
2026-04-21 05:31 27.75529 85.36336 10719 ft 271 kts 58°
2026-04-21 05:32 27.76129 85.38368 11322 ft 275 kts 87°
2026-04-21 05:32 27.75800 85.40469 11911 ft 277 kts 116°
2026-04-21 05:32 27.74677 85.42214 12509 ft 277 kts 135°
2026-04-21 05:32 27.73278 85.43755 13137 ft 279 kts 137°
2026-04-21 05:33 27.71880 85.45287 13723 ft 283 kts 136°
2026-04-21 05:33 27.70510 85.46900 14295 ft 286 kts 134°
2026-04-21 05:33 27.69156 85.48558 14864 ft 289 kts 134°
2026-04-21 05:33 27.67773 85.50235 15430 ft 292 kts 135°
2026-04-21 05:34 27.66378 85.51897 15969 ft 295 kts 135°
2026-04-21 05:34 27.64966 85.53580 16487 ft 299 kts 133°
2026-04-21 05:34 27.63744 85.55568 16775 ft 314 kts 120°
2026-04-21 05:34 27.62711 85.57812 16952 ft 331 kts 117°
2026-04-21 05:35 27.61513 85.60093 17117 ft 346 kts 129°
2026-04-21 05:35 27.59765 85.62042 17280 ft 358 kts 147°
2026-04-21 05:35 27.57536 85.63282 17447 ft 368 kts 165°
2026-04-21 05:35 27.54990 85.64007 17635 ft 381 kts 170°
2026-04-21 05:36 27.52372 85.64636 17806 ft 394 kts 171°
2026-04-21 05:36 27.49644 85.65301 17969 ft 408 kts 169°
2026-04-21 05:36 27.46828 85.66057 18125 ft 421 kts 168°
2026-04-21 05:36 27.43909 85.66894 18288 ft 433 kts 168°
2026-04-21 05:37 27.40983 85.67746 18593 ft 440 kts 168°
2026-04-21 05:37 27.38017 85.68595 19089 ft 441 kts 168°
2026-04-21 05:37 27.35017 85.69431 19664 ft 441 kts 169°
2026-04-21 05:37 27.32032 85.70252 20136 ft 444 kts 169°
2026-04-21 05:38 27.29034 85.71081 20549 ft 447 kts 169°
2026-04-21 05:38 27.25997 85.71929 20956 ft 451 kts 169°
2026-04-21 05:38 27.22915 85.72792 21373 ft 454 kts 169°
2026-04-21 05:38 27.19847 85.73648 21778 ft 456 kts 169°
2026-04-21 05:39 27.16760 85.74504 22180 ft 459 kts 169°
2026-04-21 05:39 27.14677 85.75080 22443 ft 461 kts 169°
2026-04-21 05:39 27.11554 85.75947 22827 ft 464 kts 169°
2026-04-21 05:39 27.08402 85.76825 23201 ft 467 kts 169°
2026-04-21 05:40 27.05240 85.77703 23560 ft 471 kts 169°
2026-04-21 05:40 27.02061 85.78584 23910 ft 474 kts 169°
2026-04-21 05:40 26.98850 85.79478 24273 ft 476 kts 169°
2026-04-21 05:40 26.95626 85.80402 24641 ft 480 kts 167°
2026-04-21 05:41 26.92454 85.81700 25003 ft 486 kts 161°
2026-04-21 05:41 26.89351 85.83190 25371 ft 489 kts 160°
2026-04-21 05:41 26.86241 85.84746 25727 ft 492 kts 160°
2026-04-21 05:41 26.83111 85.86326 26070 ft 494 kts 160°
2026-04-21 05:42 26.79960 85.87892 26405 ft 496 kts 160°
2026-04-21 05:42 26.76791 85.89441 26769 ft 497 kts 161°
2026-04-21 05:42 26.73604 85.90986 27249 ft 496 kts 161°
2026-04-21 05:42 26.70492 85.92585 27791 ft 495 kts 158°
2026-04-21 05:43 26.67414 85.94375 28361 ft 492 kts 157°
2026-04-21 05:43 26.64418 85.96125 28824 ft 490 kts 159°
2026-04-21 05:43 26.61345 85.97866 29247 ft 490 kts 159°
2026-04-21 05:43 26.58304 85.99580 29678 ft 488 kts 159°
2026-04-21 05:44 26.55272 86.01270 30127 ft 486 kts 160°
2026-04-21 05:44 26.52254 86.02939 30595 ft 484 kts 161°
2026-04-21 05:44 26.49252 86.04595 31037 ft 482 kts 161°
2026-04-21 05:44 26.46253 86.06259 31472 ft 481 kts 162°
2026-04-21 05:45 26.43261 86.07926 31921 ft 478 kts 162°
2026-04-21 05:45 26.40299 86.09574 32353 ft 476 kts 162°
2026-04-21 05:45 26.37340 86.11219 32759 ft 474 kts 163°
2026-04-21 05:45 26.34380 86.12861 33135 ft 473 kts 163°
2026-04-21 05:46 26.31438 86.14490 33520 ft 471 kts 164°
2026-04-21 05:46 26.28507 86.16113 33884 ft 469 kts 165°
2026-04-21 05:46 26.25566 86.17738 34255 ft 467 kts 165°
2026-04-21 05:46 26.22658 86.19346 34615 ft 465 kts 165°
2026-04-21 05:47 26.19760 86.20948 34795 ft 464 kts 165°
2026-04-21 05:47 26.16893 86.22533 34803 ft 463 kts 165°
2026-04-21 05:47 26.11095 86.25733 34797 ft 463 kts 165°
2026-04-21 05:48 26.05347 86.28905 34792 ft 463 kts 165°
2026-04-21 05:48 25.99542 86.32103 34788 ft 463 kts 165°
2026-04-21 05:49 25.93768 86.35281 34787 ft 463 kts 165°
2026-04-21 05:49 25.87981 86.38460 34784 ft 463 kts 165°
2026-04-21 05:50 25.82215 86.41652 34781 ft 464 kts 164°
2026-04-21 05:50 25.76479 86.44945 34780 ft 465 kts 164°
2026-04-21 05:51 25.70707 86.48269 34777 ft 465 kts 164°
2026-04-21 05:51 25.64976 86.51549 34740 ft 467 kts 164°
2026-04-21 05:52 25.59211 86.54850 34736 ft 467 kts 164°
2026-04-21 05:52 25.53418 86.58167 34775 ft 467 kts 164°
2026-04-21 05:53 25.47634 86.61469 34775 ft 468 kts 164°
2026-04-21 05:53 25.41843 86.64776 34774 ft 469 kts 164°
2026-04-21 05:54 25.36014 86.68099 34776 ft 469 kts 164°
2026-04-21 05:54 25.30237 86.71392 34779 ft 469 kts 164°
2026-04-21 05:55 25.24417 86.74704 34780 ft 469 kts 164°
2026-04-21 05:55 25.18608 86.78013 34779 ft 470 kts 163°
2026-04-21 05:56 25.12806 86.81402 34778 ft 470 kts 163°
2026-04-21 05:56 25.07027 86.84766 34780 ft 470 kts 163°
2026-04-21 05:57 25.01233 86.88106 34783 ft 470 kts 163°
2026-04-21 05:57 24.95449 86.91463 34783 ft 470 kts 163°
2026-04-21 05:58 24.89660 86.94809 34783 ft 470 kts 163°
2026-04-21 05:58 24.83859 86.98155 34781 ft 470 kts 163°
2026-04-21 05:59 24.78042 87.01510 34784 ft 470 kts 163°
2026-04-21 06:00 24.69392 87.06494 34809 ft 469 kts 163°
2026-04-21 06:00 24.63582 87.09830 34810 ft 469 kts 163°
2026-04-21 06:01 24.57807 87.13154 34813 ft 469 kts 163°
2026-04-21 06:01 24.51995 87.16480 34814 ft 468 kts 163°
2026-04-21 06:02 24.46189 87.19710 34812 ft 468 kts 164°
2026-04-21 06:02 24.40403 87.22937 34811 ft 468 kts 163°
2026-04-21 06:03 24.34608 87.26200 34812 ft 468 kts 163°
2026-04-21 06:03 24.28786 87.29456 34815 ft 468 kts 163°
2026-04-21 06:04 24.22986 87.32691 34814 ft 468 kts 163°
2026-04-21 06:04 24.17336 87.36435 34812 ft 487 kts 149°
2026-04-21 06:05 24.12469 87.41744 34788 ft 498 kts 142°
2026-04-21 06:05 24.07727 87.47320 34785 ft 497 kts 143°
2026-04-21 06:06 24.02906 87.52695 34817 ft 495 kts 144°
2026-04-21 06:06 23.98045 87.58050 34813 ft 496 kts 143°
2026-04-21 06:07 23.93267 87.63444 34814 ft 496 kts 143°
2026-04-21 06:07 23.88405 87.68900 34813 ft 496 kts 144°
2026-04-21 06:08 23.83602 87.74247 34689 ft 483 kts 144°
2026-04-21 06:08 23.81287 87.76841 34219 ft 473 kts 144°
2026-04-21 06:08 23.78996 87.79405 33407 ft 470 kts 144°
2026-04-21 06:08 23.76703 87.81950 32273 ft 474 kts 143°
2026-04-21 06:09 23.75147 87.83669 31404 ft 480 kts 143°
2026-04-21 06:09 23.72790 87.86274 30040 ft 488 kts 142°
2026-04-21 06:09 23.70393 87.88942 28629 ft 494 kts 141°
2026-04-21 06:09 23.67961 87.91663 27141 ft 500 kts 140°
2026-04-21 06:10 23.65517 87.94391 25835 ft 500 kts 139°
2026-04-21 06:10 23.63098 87.97079 24919 ft 491 kts 139°
2026-04-21 06:10 23.60746 87.99696 23931 ft 482 kts 138°
2026-04-21 06:10 23.58401 88.02304 22623 ft 480 kts 138°
2026-04-21 06:11 23.56033 88.04928 21138 ft 481 kts 138°
2026-04-21 06:11 23.53707 88.07501 19924 ft 477 kts 137°
2026-04-21 06:11 23.51407 88.10056 18893 ft 467 kts 137°
2026-04-21 06:11 23.49253 88.12685 17835 ft 459 kts 131°
2026-04-21 06:12 23.47266 88.15360 16775 ft 452 kts 131°
2026-04-21 06:12 23.45324 88.18028 15671 ft 446 kts 130°
2026-04-21 06:12 23.43433 88.20644 14547 ft 442 kts 130°
2026-04-21 06:12 23.41528 88.23267 13358 ft 438 kts 130°
2026-04-21 06:13 23.39641 88.25846 12139 ft 436 kts 130°
2026-04-21 06:13 23.37753 88.28415 10996 ft 431 kts 130°
2026-04-21 06:13 23.35906 88.30931 10210 ft 417 kts 130°
2026-04-21 06:13 23.34147 88.33332 9808 ft 394 kts 129°
2026-04-21 06:14 23.32501 88.35576 9657 ft 367 kts 129°
2026-04-21 06:14 23.30960 88.37676 9529 ft 343 kts 130°
2026-04-21 06:14 23.29512 88.39648 9399 ft 321 kts 130°
2026-04-21 06:14 23.28151 88.41501 9268 ft 308 kts 130°
2026-04-21 06:15 23.26809 88.43327 9082 ft 309 kts 130°
2026-04-21 06:15 23.25472 88.45142 8765 ft 306 kts 129°
2026-04-21 06:15 23.24148 88.46937 8418 ft 304 kts 130°
2026-04-21 06:15 23.22733 88.48644 8047 ft 301 kts 143°
2026-04-21 06:16 23.20905 88.49632 7684 ft 292 kts 172°
2026-04-21 06:16 23.18920 88.49688 7368 ft 284 kts 187°
2026-04-21 06:16 23.16957 88.49467 7024 ft 280 kts 189°
2026-04-21 06:16 23.15042 88.49240 6683 ft 278 kts 188°
2026-04-21 06:17 23.13101 88.49075 6344 ft 276 kts 186°
2026-04-21 06:17 23.11190 88.48958 6009 ft 273 kts 186°
2026-04-21 06:17 23.09297 88.48841 5680 ft 270 kts 186°
2026-04-21 06:17 23.07431 88.48707 5350 ft 267 kts 186°
2026-04-21 06:18 23.05589 88.48568 5028 ft 264 kts 186°
2026-04-21 06:18 23.03768 88.48433 4712 ft 261 kts 186°
2026-04-21 06:18 23.01969 88.48306 4393 ft 258 kts 186°
2026-04-21 06:18 23.00173 88.48180 4086 ft 255 kts 187°
2026-04-21 06:19 22.98415 88.48055 3766 ft 252 kts 186°
2026-04-21 06:19 22.96676 88.47932 3460 ft 250 kts 186°
2026-04-21 06:19 22.94934 88.47805 3204 ft 254 kts 186°
2026-04-21 06:19 22.93146 88.47676 3017 ft 257 kts 186°
2026-04-21 06:20 22.91402 88.47552 2976 ft 241 kts 186°
2026-04-21 06:20 22.89800 88.47441 2997 ft 225 kts 186°
2026-04-21 06:20 22.88268 88.47331 3000 ft 217 kts 187°
2026-04-21 06:20 22.86791 88.47228 2981 ft 205 kts 187°
2026-04-21 06:21 22.85389 88.47126 2953 ft 199 kts 188°
2026-04-21 06:21 22.84022 88.46965 2689 ft 197 kts 190°
2026-04-21 06:21 22.82669 88.46786 2345 ft 195 kts 189°
2026-04-21 06:21 22.81353 88.46629 2117 ft 182 kts 188°
2026-04-21 06:22 22.80159 88.46494 1978 ft 164 kts 188°
2026-04-21 06:22 22.79066 88.46368 2005 ft 152 kts 188°
2026-04-21 06:22 22.78050 88.46248 2083 ft 145 kts 188°
2026-04-21 06:22 22.77056 88.46130 2000 ft 144 kts 189°
2026-04-21 06:23 22.76068 88.46011 1759 ft 143 kts 188°
2026-04-21 06:23 22.75070 88.45899 1514 ft 142 kts 187°
2026-04-21 06:23 22.74089 88.45787 1299 ft 142 kts 186°
2026-04-21 06:23 22.73108 88.45671 1099 ft 141 kts 184°
2026-04-21 06:24 22.72132 88.45554 941 ft 141 kts 184°
2026-04-21 06:24 22.71157 88.45439 785 ft 141 kts 184°
2026-04-21 06:24 22.70228 88.45330 626 ft 140 kts 184°
2026-04-21 06:24 22.69255 88.45216 458 ft 140 kts 184°
2026-04-21 06:25 22.68293 88.45102 283 ft 140 kts 184°
2026-04-21 06:25 22.67323 88.44989 108 ft 139 kts 184°
2026-04-21 06:25 22.66373 88.44888 38 ft 130 kts 184°
2026-04-21 06:25 22.65614 88.44809 38 ft 84 kts 187°
2026-04-21 06:26 22.65196 88.44750 37 ft 41 kts 185°
2026-04-21 06:26 22.64997 88.44716 37 ft 17 kts 197°
2026-04-21 06:26 22.64911 88.44670 37 ft 13 kts 213°
2026-04-21 06:26 22.64833 88.44613 37 ft 14 kts 214°
2026-04-21 06:27 22.64750 88.44553 37 ft 15 kts 214°
2026-04-21 06:27 22.64671 88.44488 37 ft 13 kts 233°
2026-04-21 06:27 22.64658 88.44402 37 ft 10 kts 274°
2026-04-21 06:27 22.64630 88.44352 37 ft 8 kts 237°
2026-04-21 06:28 22.64624 88.44296 37 ft 8 kts 274°
2026-04-21 06:28 22.64627 88.44240 37 ft 5 kts 274°
2026-04-21 06:28 22.64627 88.44204 37 ft 5 kts 258°
2026-04-21 06:28 22.64605 88.44184 37 ft 4 kts 198°
2026-04-21 06:29 22.64573 88.44176 37 ft 5 kts 187°
2026-04-21 06:29 22.64538 88.44172 37 ft 5 kts 187°
2026-04-21 06:29 22.64500 88.44167 37 ft 6 kts 186°
2026-04-21 06:29 22.64469 88.44151 37 ft 3 kts 230°
2026-04-21 06:30 22.64464 88.44133 37 ft 2 kts 256°
2026-04-21 06:30 22.64463 88.44116 37 ft 2 kts 275°
2026-04-21 06:30 22.64464 88.44101 37 ft 2 kts 275°
2026-04-21 06:30 22.64465 88.44091 37 ft 0 kts 275°